WIF50G ENBR-EKVG

Flight info

Callsign WIF50G
Flight time 1h 48m
Altitude 24000
Route REKLI DCT VALDI/M053F240 DCT ROBUR
Aircraft DH8D/M-SDE2E3FGRY/H

Departure

Time 2026-04-28 17:07
Airport Bergen Airport, Flesland (ENBR)

Arrival

Time 2026-04-28 18:56
Airport Vágar Airport (EKVG)
Time Latitude Longitude Altitude Speed Heading
2026-04-28 16:42 60.28738 5.22903 178 ft 0 kts 80°
2026-04-28 16:53 60.28738 5.22904 178 ft 0 kts 80°
2026-04-28 16:59 60.28737 5.22899 178 ft 1 kts 80°
2026-04-28 16:59 60.28734 5.22860 176 ft 3 kts 79°
2026-04-28 16:59 60.28730 5.22818 175 ft 0 kts 79°
2026-04-28 16:59 60.28730 5.22820 175 ft 0 kts 79°
2026-04-28 17:02 60.28728 5.22830 175 ft 2 kts 131°
2026-04-28 17:02 60.28715 5.22778 173 ft 6 kts 255°
2026-04-28 17:03 60.28666 5.22565 169 ft 8 kts 260°
2026-04-28 17:03 60.28677 5.22469 169 ft 7 kts 297°
2026-04-28 17:03 60.28656 5.22370 166 ft 10 kts 182°
2026-04-28 17:04 60.28428 5.22444 159 ft 20 kts 169°
2026-04-28 17:04 60.28306 5.22476 155 ft 10 kts 195°
2026-04-28 17:05 60.28276 5.22368 151 ft 0 kts 262°
2026-04-28 17:06 60.28289 5.22196 144 ft 9 kts 294°
2026-04-28 17:06 60.28315 5.22160 145 ft 0 kts 349°
2026-04-28 17:07 60.28355 5.22147 147 ft 26 kts 351°
2026-04-28 17:07 60.28822 5.21991 163 ft 105 kts 350°
2026-04-28 17:07 60.29720 5.21711 277 ft 142 kts 351°
2026-04-28 17:07 60.30701 5.21475 852 ft 144 kts 353°
2026-04-28 17:08 60.31667 5.21209 1510 ft 143 kts 351°
2026-04-28 17:08 60.32638 5.20885 2145 ft 143 kts 351°
2026-04-28 17:08 60.33635 5.20550 2607 ft 154 kts 351°
2026-04-28 17:08 60.34821 5.20148 2632 ft 187 kts 351°
2026-04-28 17:09 60.36174 5.19684 2866 ft 206 kts 351°
2026-04-28 17:09 60.37624 5.19183 3205 ft 217 kts 351°
2026-04-28 17:09 60.39040 5.18692 3932 ft 211 kts 351°
2026-04-28 17:09 60.40477 5.18063 4424 ft 214 kts 341°
2026-04-28 17:10 60.41678 5.16203 4921 ft 223 kts 309°
2026-04-28 17:10 60.42208 5.13254 5453 ft 232 kts 279°
2026-04-28 17:10 60.42212 5.09983 5971 ft 237 kts 273°
2026-04-28 17:10 60.42182 5.06677 6522 ft 238 kts 274°
2026-04-28 17:11 60.42460 5.03430 7037 ft 234 kts 294°
2026-04-28 17:11 60.43050 5.00394 7574 ft 235 kts 296°
2026-04-28 17:11 60.43642 4.97325 8134 ft 236 kts 296°
2026-04-28 17:11 60.44233 4.94213 8655 ft 238 kts 296°
2026-04-28 17:12 60.44822 4.91062 9185 ft 240 kts 296°
2026-04-28 17:12 60.45405 4.87897 9726 ft 242 kts 296°
2026-04-28 17:12 60.45986 4.84715 10232 ft 245 kts 296°
2026-04-28 17:12 60.46569 4.81489 10768 ft 245 kts 296°
2026-04-28 17:13 60.47148 4.78269 11295 ft 248 kts 296°
2026-04-28 17:13 60.47738 4.74967 11826 ft 250 kts 297°
2026-04-28 17:13 60.48325 4.71671 12322 ft 251 kts 297°
2026-04-28 17:13 60.48920 4.68313 12839 ft 255 kts 297°
2026-04-28 17:14 60.49506 4.64989 13393 ft 254 kts 298°
2026-04-28 17:14 60.50104 4.61610 13822 ft 258 kts 298°
2026-04-28 17:14 60.50706 4.58175 14376 ft 257 kts 298°
2026-04-28 17:14 60.51277 4.54875 15152 ft 246 kts 298°
2026-04-28 17:15 60.51830 4.51688 15805 ft 241 kts 299°
2026-04-28 17:15 60.52387 4.48509 16353 ft 239 kts 299°
2026-04-28 17:15 60.52942 4.45343 16765 ft 242 kts 299°
2026-04-28 17:15 60.53507 4.42110 17245 ft 243 kts 299°
2026-04-28 17:16 60.54064 4.38906 17709 ft 243 kts 299°
2026-04-28 17:16 60.54632 4.35647 18091 ft 246 kts 299°
2026-04-28 17:16 60.55196 4.32386 18490 ft 248 kts 298°
2026-04-28 17:16 60.55763 4.29102 18911 ft 248 kts 298°
2026-04-28 17:17 60.56330 4.25810 19293 ft 249 kts 298°
2026-04-28 17:17 60.56905 4.22473 19673 ft 250 kts 298°
2026-04-28 17:17 60.57479 4.19131 20011 ft 253 kts 298°
2026-04-28 17:17 60.58051 4.15789 20381 ft 253 kts 298°
2026-04-28 17:18 60.58634 4.12387 20675 ft 256 kts 298°
2026-04-28 17:18 60.59218 4.08963 20998 ft 257 kts 298°
2026-04-28 17:18 60.59795 4.05569 21356 ft 256 kts 298°
2026-04-28 17:18 60.60381 4.02128 21606 ft 258 kts 298°
2026-04-28 17:19 60.60965 3.98679 21915 ft 259 kts 298°
2026-04-28 17:19 60.61550 3.95229 22193 ft 259 kts 298°
2026-04-28 17:19 60.62135 3.91773 22444 ft 261 kts 298°
2026-04-28 17:19 60.62725 3.88281 22668 ft 263 kts 298°
2026-04-28 17:20 60.63316 3.84765 22921 ft 264 kts 298°
2026-04-28 17:20 60.63708 3.82437 23094 ft 263 kts 298°
2026-04-28 17:20 60.64504 3.77696 23401 ft 265 kts 298°
2026-04-28 17:20 60.65097 3.74153 23626 ft 266 kts 298°
2026-04-28 17:21 60.65694 3.70588 23814 ft 268 kts 298°
2026-04-28 17:21 60.66286 3.67038 24042 ft 268 kts 298°
2026-04-28 17:21 60.66895 3.63388 24158 ft 269 kts 297°
2026-04-28 17:22 60.68119 3.56052 24001 ft 288 kts 297°
2026-04-28 17:22 60.68722 3.52351 24568 ft 274 kts 297°
2026-04-28 17:22 60.69341 3.48623 24437 ft 285 kts 297°
2026-04-28 17:23 60.70630 3.40831 24483 ft 295 kts 297°
2026-04-28 17:23 60.71291 3.36806 24490 ft 300 kts 296°
2026-04-28 17:23 60.71953 3.32759 24479 ft 305 kts 295°
2026-04-28 17:23 60.72625 3.28641 24476 ft 309 kts 295°
2026-04-28 17:24 60.73304 3.24476 24474 ft 312 kts 295°
2026-04-28 17:24 60.73988 3.20262 24468 ft 313 kts 295°
2026-04-28 17:24 60.74672 3.16031 24470 ft 314 kts 295°
2026-04-28 17:24 60.75352 3.11815 24473 ft 314 kts 295°
2026-04-28 17:25 60.76032 3.07599 24472 ft 314 kts 295°
2026-04-28 17:25 60.77391 2.99132 24467 ft 312 kts 295°
2026-04-28 17:25 60.78060 2.94950 24470 ft 311 kts 295°
2026-04-28 17:26 60.78728 2.90774 24467 ft 310 kts 295°
2026-04-28 17:26 60.79390 2.86620 24467 ft 309 kts 295°
2026-04-28 17:26 60.80058 2.82425 24469 ft 308 kts 295°
2026-04-28 17:26 60.80717 2.78279 24466 ft 308 kts 295°
2026-04-28 17:27 60.81372 2.74150 24465 ft 307 kts 295°
2026-04-28 17:27 60.82029 2.69993 24467 ft 306 kts 295°
2026-04-28 17:27 60.82681 2.65864 24466 ft 306 kts 295°
2026-04-28 17:27 60.83326 2.61762 24465 ft 306 kts 295°
2026-04-28 17:28 60.83980 2.57604 24468 ft 305 kts 295°
2026-04-28 17:28 60.85274 2.49344 24471 ft 307 kts 295°
2026-04-28 17:28 60.85926 2.45168 24465 ft 308 kts 295°
2026-04-28 17:29 60.86577 2.40987 24470 ft 309 kts 295°
2026-04-28 17:29 60.87222 2.36833 24468 ft 309 kts 295°
2026-04-28 17:29 60.87875 2.32619 24467 ft 310 kts 294°
2026-04-28 17:30 60.89176 2.24180 24467 ft 310 kts 294°
2026-04-28 17:30 60.90475 2.15720 24465 ft 311 kts 294°
2026-04-28 17:30 60.91123 2.11485 24469 ft 311 kts 294°
2026-04-28 17:31 60.91772 2.07229 24466 ft 312 kts 294°
2026-04-28 17:31 60.93063 1.98736 24464 ft 312 kts 293°
2026-04-28 17:32 60.94344 1.90271 24460 ft 312 kts 293°
2026-04-28 17:32 60.94986 1.86006 24465 ft 312 kts 293°
2026-04-28 17:32 60.95627 1.81743 24464 ft 312 kts 293°
2026-04-28 17:32 60.96269 1.77464 24464 ft 312 kts 293°
2026-04-28 17:33 60.96902 1.73231 24469 ft 312 kts 293°
2026-04-28 17:33 60.97543 1.68932 24468 ft 313 kts 293°
2026-04-28 17:33 60.98177 1.64674 24462 ft 313 kts 293°
2026-04-28 17:33 60.98386 1.63263 24466 ft 312 kts 293°
2026-04-28 17:34 60.99446 1.56111 24462 ft 312 kts 293°
2026-04-28 17:34 61.00081 1.51816 24464 ft 312 kts 293°
2026-04-28 17:34 61.00703 1.47589 24461 ft 312 kts 293°
2026-04-28 17:34 61.01334 1.43295 24461 ft 312 kts 292°
2026-04-28 17:35 61.01958 1.39041 24458 ft 312 kts 293°
2026-04-28 17:35 61.02582 1.34771 24457 ft 312 kts 292°
2026-04-28 17:35 61.03206 1.30493 24461 ft 312 kts 292°
2026-04-28 17:35 61.03831 1.26198 24458 ft 312 kts 292°
2026-04-28 17:36 61.04448 1.21946 24462 ft 312 kts 292°
2026-04-28 17:36 61.05073 1.17625 24461 ft 312 kts 291°
2026-04-28 17:36 61.05687 1.13370 24463 ft 312 kts 291°
2026-04-28 17:36 61.06307 1.09069 24457 ft 312 kts 291°
2026-04-28 17:37 61.06921 1.04791 24462 ft 312 kts 291°
2026-04-28 17:37 61.07531 1.00528 24457 ft 312 kts 291°
2026-04-28 17:37 61.08146 0.96224 24455 ft 312 kts 291°
2026-04-28 17:37 61.08751 0.91977 24458 ft 312 kts 291°
2026-04-28 17:38 61.09364 0.87666 24461 ft 312 kts 291°
2026-04-28 17:38 61.09970 0.83389 24452 ft 312 kts 291°
2026-04-28 17:38 61.10582 0.79063 24452 ft 312 kts 291°
2026-04-28 17:38 61.11186 0.74778 24456 ft 313 kts 291°
2026-04-28 17:39 61.11790 0.70486 24446 ft 314 kts 291°
2026-04-28 17:39 61.12397 0.66161 24450 ft 314 kts 291°
2026-04-28 17:39 61.13605 0.57508 24448 ft 314 kts 291°
2026-04-28 17:40 61.14208 0.53173 24445 ft 315 kts 291°
2026-04-28 17:40 61.14809 0.48841 24447 ft 315 kts 291°
2026-04-28 17:40 61.15416 0.44460 24445 ft 315 kts 291°
2026-04-28 17:40 61.16013 0.40135 24448 ft 315 kts 291°
2026-04-28 17:41 61.16616 0.35750 24445 ft 315 kts 291°
2026-04-28 17:41 61.17210 0.31421 24444 ft 316 kts 290°
2026-04-28 17:41 61.17806 0.27067 24445 ft 316 kts 290°
2026-04-28 17:41 61.18407 0.22666 24443 ft 316 kts 290°
2026-04-28 17:42 61.18999 0.18321 24442 ft 317 kts 290°
2026-04-28 17:42 61.19398 0.15379 24442 ft 317 kts 290°
2026-04-28 17:42 61.20185 0.09572 24444 ft 317 kts 290°
2026-04-28 17:42 61.20780 0.05162 24443 ft 317 kts 290°
2026-04-28 17:43 61.21371 0.00776 24440 ft 317 kts 290°
2026-04-28 17:43 61.21954 -0.03630 24439 ft 318 kts 289°
2026-04-28 17:43 61.22523 -0.08075 24437 ft 318 kts 289°
2026-04-28 17:43 61.23091 -0.12532 24435 ft 318 kts 289°
2026-04-28 17:44 61.23652 -0.16945 24439 ft 318 kts 289°
2026-04-28 17:44 61.24208 -0.21328 24437 ft 318 kts 289°
2026-04-28 17:44 61.24768 -0.25753 24438 ft 318 kts 288°
2026-04-28 17:44 61.25329 -0.30194 24434 ft 318 kts 289°
2026-04-28 17:45 61.25885 -0.34605 24436 ft 317 kts 288°
2026-04-28 17:45 61.26440 -0.39019 24436 ft 317 kts 289°
2026-04-28 17:45 61.27000 -0.43486 24435 ft 317 kts 289°
2026-04-28 17:45 61.27550 -0.47888 24434 ft 317 kts 289°
2026-04-28 17:46 61.28099 -0.52301 24429 ft 317 kts 288°
2026-04-28 17:46 61.28654 -0.56760 24432 ft 317 kts 288°
2026-04-28 17:46 61.29198 -0.61158 24430 ft 317 kts 288°
2026-04-28 17:46 61.29749 -0.65614 24432 ft 317 kts 288°
2026-04-28 17:47 61.30293 -0.70038 24433 ft 316 kts 287°
2026-04-28 17:47 61.30833 -0.74430 24426 ft 317 kts 287°
2026-04-28 17:47 61.31381 -0.78908 24430 ft 316 kts 287°
2026-04-28 17:47 61.31556 -0.80337 24432 ft 316 kts 287°
2026-04-28 17:48 61.32455 -0.87715 24432 ft 316 kts 287°
2026-04-28 17:48 61.32992 -0.92140 24430 ft 316 kts 287°
2026-04-28 17:48 61.33525 -0.96543 24428 ft 316 kts 287°
2026-04-28 17:48 61.34063 -1.01010 24428 ft 316 kts 287°
2026-04-28 17:49 61.34593 -1.05414 24425 ft 316 kts 287°
2026-04-28 17:49 61.35126 -1.09863 24426 ft 316 kts 287°
2026-04-28 17:49 61.35654 -1.14280 24428 ft 316 kts 287°
2026-04-28 17:49 61.36177 -1.18668 24427 ft 316 kts 287°
2026-04-28 17:50 61.36707 -1.23134 24431 ft 316 kts 287°
2026-04-28 17:50 61.37225 -1.27509 24426 ft 316 kts 287°
2026-04-28 17:50 61.37748 -1.31939 24422 ft 315 kts 287°
2026-04-28 17:50 61.38273 -1.36392 24421 ft 315 kts 287°
2026-04-28 17:51 61.38792 -1.40826 24423 ft 315 kts 287°
2026-04-28 17:51 61.39305 -1.45207 24430 ft 315 kts 287°
2026-04-28 17:51 61.39823 -1.49650 24429 ft 315 kts 287°
2026-04-28 17:51 61.40337 -1.54091 24420 ft 315 kts 287°
2026-04-28 17:52 61.40845 -1.58501 24420 ft 315 kts 287°
2026-04-28 17:52 61.41352 -1.62918 24425 ft 315 kts 287°
2026-04-28 17:52 61.42370 -1.71796 24417 ft 315 kts 286°
2026-04-28 17:53 61.42874 -1.76218 24419 ft 315 kts 285°
2026-04-28 17:53 61.43378 -1.80634 24413 ft 314 kts 286°
2026-04-28 17:53 61.43881 -1.85068 24419 ft 314 kts 285°
2026-04-28 17:53 61.44381 -1.89483 24412 ft 315 kts 285°
2026-04-28 17:54 61.44883 -1.93926 24414 ft 314 kts 285°
2026-04-28 17:54 61.45381 -1.98347 24415 ft 314 kts 285°
2026-04-28 17:54 61.45879 -2.02789 24406 ft 314 kts 285°
2026-04-28 17:54 61.46375 -2.07212 24409 ft 314 kts 285°
2026-04-28 17:55 61.46869 -2.11648 24414 ft 314 kts 285°
2026-04-28 17:55 61.47364 -2.16099 24413 ft 314 kts 285°
2026-04-28 17:55 61.47852 -2.20501 24410 ft 314 kts 285°
2026-04-28 17:55 61.48340 -2.24912 24413 ft 313 kts 285°
2026-04-28 17:56 61.48829 -2.29354 24405 ft 314 kts 285°
2026-04-28 17:56 61.49312 -2.33758 24415 ft 313 kts 285°
2026-04-28 17:56 61.49800 -2.38220 24415 ft 313 kts 285°
2026-04-28 17:56 61.50285 -2.42660 24411 ft 313 kts 285°
2026-04-28 17:57 61.50770 -2.47125 24400 ft 313 kts 285°
2026-04-28 17:57 61.51250 -2.51560 24404 ft 313 kts 285°
2026-04-28 17:57 61.51722 -2.55931 24411 ft 313 kts 285°
2026-04-28 17:57 61.52203 -2.60392 24400 ft 313 kts 285°
2026-04-28 17:58 61.52679 -2.64831 24404 ft 312 kts 285°
2026-04-28 17:58 61.53153 -2.69260 24403 ft 312 kts 284°
2026-04-28 17:58 61.53624 -2.73686 24398 ft 312 kts 284°
2026-04-28 17:58 61.54092 -2.78098 24399 ft 312 kts 284°
2026-04-28 17:59 61.54562 -2.82530 24398 ft 312 kts 284°
2026-04-28 17:59 61.55028 -2.86950 24398 ft 311 kts 284°
2026-04-28 17:59 61.55487 -2.91325 24395 ft 311 kts 284°
2026-04-28 17:59 61.55952 -2.95755 24397 ft 310 kts 284°
2026-04-28 18:00 61.56412 -3.00166 24394 ft 310 kts 284°
2026-04-28 18:00 61.56870 -3.04566 24397 ft 309 kts 284°
2026-04-28 18:00 61.57321 -3.08918 24399 ft 309 kts 284°
2026-04-28 18:00 61.57780 -3.13349 24396 ft 309 kts 284°
2026-04-28 18:01 61.58228 -3.17695 24392 ft 309 kts 284°
2026-04-28 18:01 61.58682 -3.22123 24392 ft 309 kts 284°
2026-04-28 18:01 61.59131 -3.26512 24399 ft 308 kts 284°
2026-04-28 18:01 61.59572 -3.30837 24397 ft 308 kts 284°
2026-04-28 18:02 61.60023 -3.35274 24398 ft 308 kts 284°
2026-04-28 18:02 61.60463 -3.39616 24400 ft 308 kts 284°
2026-04-28 18:02 61.60906 -3.44010 24394 ft 308 kts 284°
2026-04-28 18:02 61.61345 -3.48373 24400 ft 307 kts 284°
2026-04-28 18:03 61.61787 -3.52781 24401 ft 307 kts 283°
2026-04-28 18:03 61.62223 -3.57152 24397 ft 307 kts 283°
2026-04-28 18:03 61.62662 -3.61551 24396 ft 308 kts 283°
2026-04-28 18:03 61.63091 -3.65883 24394 ft 308 kts 283°
2026-04-28 18:04 61.63526 -3.70282 24394 ft 308 kts 283°
2026-04-28 18:04 61.63958 -3.74669 24395 ft 308 kts 282°
2026-04-28 18:04 61.64389 -3.79054 24389 ft 308 kts 282°
2026-04-28 18:04 61.64817 -3.83435 24396 ft 308 kts 282°
2026-04-28 18:05 61.65250 -3.87879 24396 ft 308 kts 282°
2026-04-28 18:05 61.65535 -3.90808 24392 ft 308 kts 282°
2026-04-28 18:05 61.66100 -3.96649 24393 ft 308 kts 282°
2026-04-28 18:05 61.66523 -4.01030 24391 ft 308 kts 282°
2026-04-28 18:06 61.66949 -4.05473 24391 ft 308 kts 282°
2026-04-28 18:06 61.67370 -4.09867 24387 ft 308 kts 282°
2026-04-28 18:06 61.67790 -4.14269 24388 ft 308 kts 282°
2026-04-28 18:06 61.68204 -4.18627 24390 ft 308 kts 282°
2026-04-28 18:07 61.68623 -4.23051 24385 ft 308 kts 282°
2026-04-28 18:07 61.69040 -4.27467 24384 ft 308 kts 282°
2026-04-28 18:07 61.69454 -4.31869 24380 ft 308 kts 282°
2026-04-28 18:07 61.69870 -4.36312 24380 ft 308 kts 282°
2026-04-28 18:08 61.70280 -4.40714 24382 ft 308 kts 282°
2026-04-28 18:08 61.70689 -4.45117 24379 ft 308 kts 282°
2026-04-28 18:08 61.71097 -4.49522 24376 ft 308 kts 282°
2026-04-28 18:08 61.71509 -4.53984 24368 ft 308 kts 282°
2026-04-28 18:09 61.71911 -4.58366 24368 ft 308 kts 282°
2026-04-28 18:09 61.72317 -4.62794 24372 ft 308 kts 282°
2026-04-28 18:09 61.72721 -4.67222 24372 ft 308 kts 281°
2026-04-28 18:09 61.73119 -4.71612 24362 ft 308 kts 281°
2026-04-28 18:10 61.73521 -4.76057 24364 ft 308 kts 281°
2026-04-28 18:10 61.73923 -4.80506 24361 ft 308 kts 281°
2026-04-28 18:10 61.74319 -4.84915 24360 ft 308 kts 281°
2026-04-28 18:10 61.74713 -4.89314 24358 ft 308 kts 281°
2026-04-28 18:11 61.75108 -4.93744 24357 ft 308 kts 281°
2026-04-28 18:11 61.75503 -4.98198 24355 ft 308 kts 281°
2026-04-28 18:11 61.75896 -5.02630 24362 ft 308 kts 281°
2026-04-28 18:11 61.76285 -5.07050 24348 ft 308 kts 281°
2026-04-28 18:12 61.76673 -5.11474 24347 ft 308 kts 280°
2026-04-28 18:12 61.77062 -5.15918 24341 ft 308 kts 281°
2026-04-28 18:12 61.77444 -5.20310 24341 ft 308 kts 280°
2026-04-28 18:12 61.77827 -5.24727 24348 ft 307 kts 280°
2026-04-28 18:13 61.78210 -5.29165 24347 ft 307 kts 280°
2026-04-28 18:13 61.78589 -5.33563 24347 ft 307 kts 280°
2026-04-28 18:13 61.78970 -5.38007 24345 ft 307 kts 280°
2026-04-28 18:13 61.79348 -5.42432 24344 ft 307 kts 280°
2026-04-28 18:14 61.79724 -5.46859 24343 ft 306 kts 280°
2026-04-28 18:14 61.80094 -5.51235 24346 ft 306 kts 280°
2026-04-28 18:14 61.80466 -5.55640 24346 ft 306 kts 280°
2026-04-28 18:14 61.80839 -5.60079 24344 ft 306 kts 280°
2026-04-28 18:15 61.81205 -5.64452 24346 ft 306 kts 280°
2026-04-28 18:15 61.81572 -5.68871 24344 ft 305 kts 279°
2026-04-28 18:15 61.81938 -5.73278 24278 ft 307 kts 279°
2026-04-28 18:15 61.82309 -5.77777 23919 ft 310 kts 279°
2026-04-28 18:16 61.82672 -5.82213 23542 ft 307 kts 279°
2026-04-28 18:16 61.83030 -5.86613 23166 ft 302 kts 278°
2026-04-28 18:16 61.83374 -5.90881 22785 ft 295 kts 278°
2026-04-28 18:16 61.83717 -5.95132 22406 ft 289 kts 278°
2026-04-28 18:17 61.84051 -5.99271 22027 ft 285 kts 278°
2026-04-28 18:17 61.84379 -6.03357 21652 ft 281 kts 278°
2026-04-28 18:17 61.84701 -6.07382 21276 ft 277 kts 278°
2026-04-28 18:17 61.85017 -6.11330 20906 ft 273 kts 277°
2026-04-28 18:18 61.85332 -6.15293 20530 ft 272 kts 277°
2026-04-28 18:18 61.85645 -6.19221 20161 ft 271 kts 277°
2026-04-28 18:18 61.85950 -6.23090 19795 ft 271 kts 277°
2026-04-28 18:18 61.86158 -6.25720 19546 ft 271 kts 277°
2026-04-28 18:19 61.86564 -6.30891 19050 ft 268 kts 277°
2026-04-28 18:19 61.86869 -6.34793 18677 ft 266 kts 276°
2026-04-28 18:19 61.87168 -6.38627 18306 ft 265 kts 276°
2026-04-28 18:19 61.87463 -6.42432 17934 ft 264 kts 276°
2026-04-28 18:20 61.87756 -6.46228 17492 ft 262 kts 276°
2026-04-28 18:20 61.88044 -6.49999 16996 ft 259 kts 276°
2026-04-28 18:20 61.88330 -6.53744 16494 ft 256 kts 276°
2026-04-28 18:20 61.88608 -6.57384 15995 ft 252 kts 276°
2026-04-28 18:21 61.88781 -6.61036 15482 ft 245 kts 263°
2026-04-28 18:21 61.88139 -6.64198 14964 ft 238 kts 228°
2026-04-28 18:21 61.86753 -6.66021 14538 ft 233 kts 205°
2026-04-28 18:21 61.85239 -6.67195 14402 ft 231 kts 203°
2026-04-28 18:22 61.83746 -6.68313 14357 ft 227 kts 201°
2026-04-28 18:22 61.82198 -6.68508 14321 ft 230 kts 168°
2026-04-28 18:22 61.80878 -6.66503 14350 ft 249 kts 133°
2026-04-28 18:22 61.79915 -6.63332 14361 ft 263 kts 125°
2026-04-28 18:23 61.78988 -6.59943 14359 ft 269 kts 123°
2026-04-28 18:23 61.78067 -6.56503 14353 ft 270 kts 123°
2026-04-28 18:23 61.77177 -6.53050 14350 ft 272 kts 118°
2026-04-28 18:23 61.76699 -6.49176 14347 ft 276 kts 94°
2026-04-28 18:24 61.77026 -6.45230 14344 ft 276 kts 66°
2026-04-28 18:24 61.77312 -6.44023 14346 ft 275 kts 57°
2026-04-28 18:24 61.79684 -6.39945 14343 ft 263 kts 14°
2026-04-28 18:24 61.81449 -6.39452 14345 ft 254 kts 350°
2026-04-28 18:25 61.83094 -6.40381 14348 ft 244 kts 327°
2026-04-28 18:25 61.84425 -6.42474 14347 ft 235 kts 307°
2026-04-28 18:25 61.85341 -6.45264 14349 ft 231 kts 295°
2026-04-28 18:26 61.86915 -6.51155 14344 ft 232 kts 295°
2026-04-28 18:26 61.87708 -6.54143 14346 ft 233 kts 295°
2026-04-28 18:26 61.88502 -6.57152 14343 ft 233 kts 293°
2026-04-28 18:26 61.89027 -6.60307 14340 ft 227 kts 274°
2026-04-28 18:27 61.88919 -6.63593 14339 ft 223 kts 252°
2026-04-28 18:27 61.88187 -6.66454 14339 ft 223 kts 230°
2026-04-28 18:27 61.86969 -6.68420 14339 ft 226 kts 208°
2026-04-28 18:27 61.85427 -6.69155 14342 ft 233 kts 184°
2026-04-28 18:28 61.83836 -6.68398 14339 ft 242 kts 159°
2026-04-28 18:28 61.82511 -6.66130 14338 ft 252 kts 132°
2026-04-28 18:28 61.81582 -6.62927 14346 ft 256 kts 123°
2026-04-28 18:28 61.80730 -6.59661 14350 ft 257 kts 123°
2026-04-28 18:29 61.79868 -6.56356 14349 ft 258 kts 123°
2026-04-28 18:29 61.79026 -6.53046 14345 ft 260 kts 118°
2026-04-28 18:29 61.78607 -6.49338 14341 ft 264 kts 90°
2026-04-28 18:29 61.79076 -6.45647 14343 ft 263 kts 58°
2026-04-28 18:30 61.80317 -6.42919 14343 ft 256 kts 27°
2026-04-28 18:30 61.80841 -6.42350 14342 ft 253 kts 17°
2026-04-28 18:30 61.83605 -6.42329 14344 ft 233 kts 330°
2026-04-28 18:30 61.84885 -6.44181 14344 ft 222 kts 307°
2026-04-28 18:31 61.85754 -6.46826 14347 ft 218 kts 295°
2026-04-28 18:31 61.86500 -6.49603 14346 ft 219 kts 294°
2026-04-28 18:31 61.87250 -6.52418 14347 ft 220 kts 294°
2026-04-28 18:31 61.87999 -6.55237 14348 ft 221 kts 294°
2026-04-28 18:32 61.88719 -6.58102 14339 ft 220 kts 288°
2026-04-28 18:32 61.89024 -6.61231 14342 ft 216 kts 266°
2026-04-28 18:32 61.88666 -6.64277 14341 ft 214 kts 242°
2026-04-28 18:32 61.87723 -6.66685 14341 ft 218 kts 219°
2026-04-28 18:33 61.86334 -6.68014 14341 ft 225 kts 195°
2026-04-28 18:33 61.84763 -6.67868 14339 ft 235 kts 168°
2026-04-28 18:33 61.83339 -6.66096 14337 ft 247 kts 140°
2026-04-28 18:33 61.82357 -6.63046 14355 ft 254 kts 123°
2026-04-28 18:34 61.81505 -6.59779 14353 ft 256 kts 123°
2026-04-28 18:34 61.80640 -6.56474 14352 ft 259 kts 123°
2026-04-28 18:34 61.79784 -6.53136 14348 ft 262 kts 119°
2026-04-28 18:34 61.79374 -6.49382 14337 ft 268 kts 88°
2026-04-28 18:35 61.79974 -6.45674 14343 ft 266 kts 52°
2026-04-28 18:35 61.81361 -6.43296 14346 ft 257 kts 18°
2026-04-28 18:35 61.83063 -6.42769 14346 ft 245 kts 346°
2026-04-28 18:35 61.84594 -6.44010 14346 ft 233 kts 318°
2026-04-28 18:36 61.85646 -6.46501 14349 ft 225 kts 296°
2026-04-28 18:36 61.86433 -6.49373 14348 ft 227 kts 295°
2026-04-28 18:36 61.87211 -6.52286 14347 ft 229 kts 295°
2026-04-28 18:36 61.87993 -6.55227 14349 ft 231 kts 295°
2026-04-28 18:37 61.88743 -6.58222 14340 ft 231 kts 288°
2026-04-28 18:37 61.89058 -6.61476 14342 ft 226 kts 266°
2026-04-28 18:37 61.88698 -6.64698 14340 ft 225 kts 243°
2026-04-28 18:37 61.87747 -6.67255 14342 ft 227 kts 221°
2026-04-28 18:38 61.86327 -6.68766 14340 ft 234 kts 197°
2026-04-28 18:38 61.84689 -6.68813 14342 ft 243 kts 172°
2026-04-28 18:38 61.83145 -6.67212 14337 ft 254 kts 144°
2026-04-28 18:38 61.82052 -6.64223 14353 ft 262 kts 124°
2026-04-28 18:39 61.81168 -6.60865 14350 ft 265 kts 123°
2026-04-28 18:39 61.80278 -6.57457 14351 ft 267 kts 123°
2026-04-28 18:39 61.79369 -6.53969 14213 ft 271 kts 122°
2026-04-28 18:39 61.78753 -6.50240 13956 ft 277 kts 98°
2026-04-28 18:40 61.79057 -6.46289 13702 ft 277 kts 63°
2026-04-28 18:40 61.80269 -6.43245 13454 ft 270 kts 30°
2026-04-28 18:40 61.81968 -6.41935 13208 ft 259 kts 359°
2026-04-28 18:40 61.83678 -6.42476 12965 ft 247 kts 331°
2026-04-28 18:41 61.85035 -6.44554 12716 ft 236 kts 305°
2026-04-28 18:41 61.85915 -6.47398 12484 ft 233 kts 295°
2026-04-28 18:41 61.86710 -6.50377 12245 ft 235 kts 295°
2026-04-28 18:41 61.87511 -6.53402 12000 ft 236 kts 295°
2026-04-28 18:42 61.88319 -6.56455 11751 ft 238 kts 295°
2026-04-28 18:42 61.88967 -6.59639 11497 ft 234 kts 280°
2026-04-28 18:42 61.89012 -6.62979 11250 ft 231 kts 258°
2026-04-28 18:42 61.88386 -6.66106 11000 ft 231 kts 235°
2026-04-28 18:43 61.87205 -6.68382 10753 ft 235 kts 213°
2026-04-28 18:43 61.85631 -6.69416 10503 ft 243 kts 189°
2026-04-28 18:43 61.83965 -6.68892 10255 ft 253 kts 163°
2026-04-28 18:43 61.82506 -6.66718 10000 ft 264 kts 135°
2026-04-28 18:44 61.81515 -6.63453 9770 ft 268 kts 123°
2026-04-28 18:44 61.79716 -6.56541 9288 ft 271 kts 122°
2026-04-28 18:44 61.78826 -6.53036 9037 ft 273 kts 118°
2026-04-28 18:45 61.78388 -6.49111 8770 ft 278 kts 90°
2026-04-28 18:45 61.78909 -6.45285 8508 ft 269 kts 57°
2026-04-28 18:45 61.80176 -6.42617 8325 ft 256 kts 25°
2026-04-28 18:45 61.81817 -6.41508 8335 ft 243 kts 358°
2026-04-28 18:46 61.83433 -6.41974 8252 ft 234 kts 333°
2026-04-28 18:46 61.84758 -6.43767 8010 ft 225 kts 309°
2026-04-28 18:46 61.85698 -6.46357 7766 ft 220 kts 299°
2026-04-28 18:46 61.86555 -6.49012 7519 ft 220 kts 299°
2026-04-28 18:47 61.87392 -6.51696 7254 ft 221 kts 296°
2026-04-28 18:47 61.88139 -6.54534 6909 ft 218 kts 292°
2026-04-28 18:47 61.88818 -6.57396 6552 ft 217 kts 291°
2026-04-28 18:47 61.89474 -6.60213 6208 ft 216 kts 291°
2026-04-28 18:48 61.90157 -6.63056 5854 ft 215 kts 292°
2026-04-28 18:48 61.90853 -6.65860 5505 ft 214 kts 293°
2026-04-28 18:48 61.91544 -6.68588 5233 ft 210 kts 292°
2026-04-28 18:48 61.92226 -6.71266 4972 ft 205 kts 293°
2026-04-28 18:49 61.92899 -6.73901 4711 ft 200 kts 292°
2026-04-28 18:49 61.93121 -6.74774 4621 ft 199 kts 292°
2026-04-28 18:49 61.94207 -6.79060 4196 ft 199 kts 292°
2026-04-28 18:49 61.94852 -6.81621 3944 ft 199 kts 292°
2026-04-28 18:50 61.95506 -6.84215 3800 ft 197 kts 292°
2026-04-28 18:50 61.96149 -6.86743 3871 ft 196 kts 292°
2026-04-28 18:50 61.96798 -6.89305 3923 ft 199 kts 292°
2026-04-28 18:50 61.97438 -6.91852 3924 ft 187 kts 292°
2026-04-28 18:51 61.98008 -6.94118 3928 ft 162 kts 291°
2026-04-28 18:51 61.98515 -6.96122 3918 ft 151 kts 291°
2026-04-28 18:51 61.99003 -6.98072 3727 ft 148 kts 290°
2026-04-28 18:51 61.99474 -6.99984 3460 ft 147 kts 290°
2026-04-28 18:52 61.99947 -7.01895 3205 ft 145 kts 290°
2026-04-28 18:52 62.00412 -7.03758 2968 ft 142 kts 290°
2026-04-28 18:52 62.00873 -7.05606 2740 ft 142 kts 290°
2026-04-28 18:52 62.01343 -7.07489 2552 ft 146 kts 290°
2026-04-28 18:53 62.01820 -7.09396 2331 ft 144 kts 290°
2026-04-28 18:53 62.02274 -7.11194 2081 ft 132 kts 289°
2026-04-28 18:53 62.02690 -7.12843 1867 ft 117 kts 288°
2026-04-28 18:53 62.03068 -7.14317 1743 ft 115 kts 289°
2026-04-28 18:54 62.03453 -7.15855 1529 ft 119 kts 288°
2026-04-28 18:54 62.03834 -7.17400 1286 ft 117 kts 289°
2026-04-28 18:54 62.04223 -7.18965 1183 ft 124 kts 291°
2026-04-28 18:54 62.04620 -7.20611 976 ft 125 kts 293°
2026-04-28 18:55 62.05035 -7.22305 767 ft 130 kts 292°
2026-04-28 18:55 62.05310 -7.23427 596 ft 127 kts 292°
2026-04-28 18:55 62.05854 -7.25637 345 ft 131 kts 293°
2026-04-28 18:55 62.06259 -7.27315 285 ft 111 kts 297°
2026-04-28 18:56 62.06453 -7.28096 292 ft 14 kts 298°
2026-04-28 18:56 62.06488 -7.28154 291 ft 7 kts 14°
2026-04-28 18:56 62.06545 -7.28104 289 ft 9 kts 22°
2026-04-28 18:56 62.06613 -7.28090 289 ft 10 kts 355°
2026-04-28 18:57 62.06649 -7.28007 289 ft 9 kts 101°
2026-04-28 18:57 62.06626 -7.27879 289 ft 8 kts 117°
2026-04-28 18:57 62.06615 -7.27787 289 ft 4 kts 41°
2026-04-28 18:57 62.06640 -7.27760 289 ft 0 kts 26°
2026-04-28 18:58 62.06643 -7.27757 289 ft 0 kts 26°